This demonstration page uses our WeatherBlox Daily Observations layout. Learn more.

Left ArrowRight Arrow

41.86663, -103.66717

Hourly Observations for November 30, 2021

Temp ( °F °C ) Dew Point ( °F °C ) Humidity (%) Winds ( mph kmh ) Pressure ( in mb ) Visibility ( mi km ) Precip ( " mm )
12:53 am 00:53 Clear 43 6.1 27 -2.8 53 53 NE 8 13 30.06 1018 10 16 0.00 0.00
1:53 am 01:53 Mostly Cloudy 46 7.8 28 -2.2 50 50 ENE 7 11 30.09 1019 10 16 0.00 0.00
2:53 am 02:53 Cloudy 47 8.3 30 -1.1 52 52 ENE 18 30 30.12 1020 10 16 0.00 0.00
3:53 am 03:53 Clear 42 5.6 31 -0.6 65 65 NNW 3 6 30.16 1022 10 16 0.00 0.00
4:53 am 04:53 Clear 36 2.2 29 -1.7 76 76 WNW 8 13 30.26 1025 10 16 0.00 0.00
5:53 am 05:53 Clear 33 0.6 27 -2.8 78 78 W 5 7 30.30 1026 10 16 0.00 0.00
6:53 am 06:53 Clear 30 -1.1 25 -3.9 82 82 WNW 5 7 30.31 1027 10 16 0.00 0.00
7:53 am 07:53 Sunny 35 1.7 27 -2.8 72 72 Calm 30.29 1026 10 16 0.00 0.00
8:53 am 08:53 Sunny 41 5 31 -0.6 67 67 NW 9 15 30.29 1026 10 16 0.00 0.00
9:53 am 09:53 Sunny 47 8.3 33 0.6 59 59 SW 5 7 30.25 1024 10 16 0.00 0.00
10:53 am 10:53 Sunny 50 10 34 1.1 54 54 SSW 12 19 30.19 1022 10 16 0.00 0.00
11:53 am 11:53 Sunny 54 12.2 34 1.1 47 47 S 17 28 30.07 1018 10 16 0.00 0.00
12:53 pm 12:53 Sunny 57 13.9 32 0 39 39 SSW 15 24 30.00 1016 10 16 0.00 0.00
1:53 pm 13:53 Sunny 58 14.4 30 -1.1 35 35 SSW 15 24 29.96 1015 10 16 0.00 0.00
2:53 pm 14:53 Sunny 58 14.4 30 -1.1 35 35 SSW 9 15 29.95 1014 10 16 0.00 0.00
3:53 pm 15:53 Sunny 58 14.4 22 -5.6 25 25 WNW 14 22 29.95 1014 10 16 0.00 0.00
4:53 pm 16:53 Clear 54 12.2 22 -5.6 29 29 W 9 15 29.99 1016 10 16 0.00 0.00
5:53 pm 17:53 Clear 49 9.4 22 -5.6 35 35 NW 5 7 30.03 1017 10 16 0.00 0.00
6:53 pm 18:53 Clear 44 6.7 23 -5 43 43 NW 9 15 30.07 1018 10 16 0.00 0.00
7:53 pm 19:53 Clear 42 5.6 23 -5 47 47 W 5 7 30.08 1019 10 16 0.00 0.00
8:53 pm 20:53 Clear 36 2.2 22 -5.6 57 57 NW 3 6 30.09 1019 10 16 0.00 0.00
9:53 pm 21:53 Clear 34 1.1 22 -5.6 61 61 NNW 6 9 30.08 1019 10 16 0.00 0.00
10:53 pm 22:53 Clear 32 0 21 -6.1 64 64 WNW 6 9 30.09 1019 10 16 0.00 0.00
11:53 pm 23:53 Clear 32 0 20 -6.7 61 61 N 6 9 30.06 1018 10 16 0.00 0.00

Powered by AerisWeather